MOLNIYA 1-78 (Decayed 2007-07-06) 1 20742U 90071A 07187.92511705 .99999999 97758-5 92287-3 0 6031 2 20742 061.3546 079.8457 0256441 280.3097 077.1367 16.07467135124304 MOLNIYA 3-39 1 20813U 90084A 09006.46339074 .00001631 00000-0 28027-3 0 967 2 20813 062.2229 089.7388 7495634 267.7187 013.7175 02.00689421134057 MOLNIYA 1-80 1 21118U 91012A 09005.67102107 -.00001282 +00000-0 +10000-3 0 05617 2 21118 062.4490 292.7988 7306554 250.4951 022.8607 02.00460716131085 MOLNIYA 3-40 1 21196U 91022A 09004.71463667 -.00000958 00000-0 10000-3 0 8655 2 21196 062.0520 274.8870 7302396 252.7545 021.6726 02.00280803130362 MOLNIYA 1-81 1 21426U 91043A 09004.75758067 +.00000222 +00000-0 -35979-3 0 00185 2 21426 062.1298 264.3837 7333457 263.8286 016.5006 02.00632728128622 MOLNIYA 3-41 1 21706U 91065A 09006.26494032 .00000039 00000-0 -51865-3 0 3122 2 21706 062.2004 088.7608 7409209 273.7966 012.6023 02.00722648126790 MOLNIYA 1-83 (Decayed 2007-07-01) 1 21897U 92011A 07182.54228483 .99999999 39507-5 71364-3 0 6569 2 21897 062.0262 125.4048 0862131 260.6337 095.0674 14.64030781113010 MOLNIYA 1-84 (Decayed 2008-04-04) 1 22068U 92050A 08090.07126951 .00081002 20360-6 10000-3 0 2504 2 22068 061.4234 120.4751 4232825 269.9804 042.9330 07.21307907115547 MOLNIYA 3-42 1 22178U 92067A 09006.61761249 .00000257 00000-0 -41827-2 0 6665 2 22178 061.9749 216.2560 7259631 262.5836 017.5726 02.00643786118931 MOLNIYA 3-43 (Decayed 2008-11-08) 1 22255U 92085A 08313.00370478 .39506582 68961-5 10000-3 0 2321 2 22255 063.0849 336.0925 0327870 259.1187 097.3762 15.94406168118217 MOLNIYA 1-86 1 22671U 93035A 09006.49387334 -.00000327 00000-0 13508-3 0 730 2 22671 062.0608 167.3060 7267610 267.8474 015.5369 02.03258031114720 MOLNIYA 3-45 1 22729U 93049A 09005.03267593 .00001544 00000-0 00000+0 0 7469 2 22729 063.0105 309.5149 7369605 251.6316 021.5463 02.00812891112972 MOLNIYA 1-87 1 22949U 93079A 09006.42665346 .00000832 00000-0 10000-3 0 2748 2 22949 063.9358 080.6132 7138862 249.4700 025.2430 02.00483729110275 MOLNIYA 3-46 1 23211U 94051A 09003.24704756 .00391421 -14686-4 12189-3 0 5344 2 23211 062.1611 131.3891 7505981 258.5445 017.5092 02.08171224105335 MOLNIYA 1-88 1 23420U 94081A 09005.72442573 -.00000735 00000-0 15234-3 0 8725 2 23420 062.1703 261.4973 7425248 259.9375 017.1471 02.02265508103113 MOLNIYA 3-47 1 23642U 95042A 09005.21024480 .00000122 00000-0 10000-3 0 3018 2 23642 063.6711 063.8299 7268457 253.7556 021.4101 02.00603683 98275 MOLNIYA 1-89 1 24273U 96045A 09006.52695284 .00059679 -46191-6 42605-3 0 8429 2 24273 063.2403 354.3267 7473079 254.0888 350.7436 02.09387282 90840 MOLNIYA 3-48 (Decayed 2007-10-18) 1 24640U 96060A 07291.13395417 .99999999 83187-5 52459-3 0 1139 2 24640 063.3472 327.2473 0128626 257.0956 102.6261 16.43397936 81211 MOLNIYA 1-90 1 24960U 97054A 09006.23128176 .00000227 00000-0 10000-3 0 3057 2 24960 063.9136 108.4855 7160404 255.1429 311.8849 02.00634980 82738 MOLNIYA 3-49 1 25379U 98040A 09006.22714524 -.00000242 00000-0 10000-3 0 7934 2 25379 063.9505 079.1031 7355159 255.2744 019.7491 02.00584761 77076 MOLNIYA 1-91 1 25485U 98054A 09006.08799359 .00000301 00000-0 10000-3 0 4347 2 25485 063.8642 196.1840 6786828 262.8641 036.0319 02.00615058 75256 MOLNIYA 3-50 1 25847U 99036A 09005.81505330 -.00000188 00000-0 10000-3 0 5440 2 25847 063.8749 291.0469 7094838 267.4075 017.2434 02.00607886 69593 MOLNIYA 3-51 1 26867U 01030A 09006.16040848 .00000407 00000-0 00000+0 0 7087 2 26867 064.0875 221.3878 7040031 269.2757 029.8679 02.00616962 54704 MOLNIYA 1-92 1 27707U 03011A 09006.68655483 .00000552 00000-0 65181-1 0 1635 2 27707 064.8088 224.5274 7024531 267.8230 043.1627 02.00548374 42254 MOLNIYA 3-53 1 27834U 03029A 09006.16269946 .00000267 00000-0 00000+0 0 9653 2 27834 064.8337 224.3823 7024907 268.4330 031.4398 02.00605670 40666 MOLNIYA 1-93 1 28163U 04005A 09006.35070354 .00000082 00000-0 10000-3 0 7768 2 28163 064.8595 309.9041 7270989 278.6793 346.7685 02.00587422 35781